Weather in Gyda

Russia / Yamalo-Nenets Autonomous Okrug     70°53′36″N   78°29′06″E
temp.,
°C
wind,
m/s
gust,
m/s
humid.,
%
clouds,
%
prec.,
mm/h
press.,
hPa
HPBL,
m
21 october, thu
thu2123:00−8nnw489032 0.4 999116
02:00−8nnw3691100 0.0 1002102
05:00−10nnw229424 0.0 100510
08:00−11sw11945 0.0 100610
11:00−11sse2296100 0.0 100711
14:00−8se3491100 0.0 100770
17:00−9ese4790100 0.0 1007137
20:00−9ese4892100 0.0 1005180
22 october, fri
fri2223:00−9ese4791100 0.0 1004151
02:00−10ese469326 0.0 1004129
05:00−13ese35955 0.0 100461
08:00−13ese3496100 0.0 100450
11:00−11ese3695100 0.0 1004119
14:00−9ese4894100 0.0 1004220
17:00−9ese4894100 0.0 1003228
20:00−8ese5993100 0.0 1001267
23 october, sat
sat2323:00−8e5994100 0.0 999255
02:00−8e4894100 0.0 998280
05:00−9e4895100 0.0 996232
08:00−12e359874 0.0 99563
11:00−11ese3697100 0.1 994133
14:00−10ese369599 0.0 994133
17:00−11ese479588 0.0 993132
20:00−10ese5995100 0.0 992169
24 october, sun
sun2423:00−8ese5995100 0.1 991242
02:00−7ese61095100 0.3 989273
05:00−6ese61095100 0.6 988266
08:00−5e61196100 0.8 987296
11:00−3e61096100 1.8 986367
14:00−3e5997100 1.2 985350
17:00−2e4798100 3.0 985280
20:00−2ese2498100 1.6 984140
25 october, mon
mon2523:00−2wsw3598100 3.0 984160
02:00−3w81197100 1.0 986405
05:00−3w81396100 1.8 988637
08:00−5wsw91493100 0.6 990524
11:00−5wsw91592100 0.9 992554
14:00−5sw91691100 0.2 994579
17:00−4sw91692100 0.4 995607
20:00−5sw10178986 0.3 996555